Theta_e
305 304 306 305 303 304 305 306 305 302 304 304 305 303 302 303 302 302 302 302 301 300 300 299 298 297 298 300 302 303 305 311 315 317 318 319 319 320 321 324 324 323 324 324
302 306 306 304 304 305 305 305 304 302 302 304 304 304 302 302 302 303 303 302 301 301 300 299 298 297 297 299 301 302 302 303 307 315 317 317 318 319 320 322 324 324 324 324
302 306 305 304 304 306 306 306 305 305 303 303 301 302 304 303 302 303 303 302 302 301 300 299 297 297 296 299 301 302 302 303 303 306 312 316 316 317 318 319 320 323 325 324
303 303 304 305 305 304 307 305 305 305 304 306 301 304 302 302 301 301 303 303 302 301 300 299 297 297 296 297 301 301 302 302 303 303 303 313 317 317 318 319 320 321 323 322
303 304 303 304 305 304 305 304 305 305 305 303 305 299 302 301 304 303 302 303 302 301 300 299 297 296 296 295 299 301 302 302 302 303 303 304 311 315 317 317 318 319 319 323
302 304 303 303 303 304 304 305 300 300 302 297 305 301 302 302 304 302 302 303 303 301 300 299 297 296 295 294 297 300 302 302 302 302 302 303 303 308 314 315 317 318 319 321
298 302 301 303 303 302 300 298 292 294 293 298 300 301 302 301 301 302 302 303 303 302 300 299 297 295 295 294 295 299 302 302 302 302 302 303 303 303 306 314 317 318 318 319
295 298 301 301 303 303 303 300 295 293 298 297 300 304 305 302 304 303 303 303 303 302 300 300 297 295 295 294 296 298 301 302 302 303 302 302 302 303 303 305 311 315 318 318
294 297 299 301 301 300 301 299 301 297 293 297 299 299 299 302 301 303 303 303 303 303 301 300 299 295 294 294 297 298 301 302 302 302 302 302 302 302 303 303 303 307 313 316
294 296 296 300 302 302 302 300 296 293 292 293 295 296 301 304 304 301 301 303 303 302 302 301 300 296 294 294 296 297 297 301 302 302 303 303 302 302 302 302 303 303 305 314
293 294 296 298 297 300 302 299 301 299 298 293 291 296 295 302 302 301 301 303 303 302 302 301 301 298 294 294 294 294 297 300 302 302 303 303 303 303 302 301 301 303 303 307
297 296 296 296 296 298 300 302 301 294 290 294 296 297 297 298 300 301 302 303 303 303 302 302 301 300 295 294 294 294 296 298 301 302 303 303 303 303 303 302 301 301 303 303
299 295 296 300 296 296 299 301 300 297 295 295 293 296 295 297 299 303 302 301 300 301 301 302 301 300 295 294 294 294 295 296 300 301 303 303 304 304 303 303 302 301 303 303
299 290 297 303 301 297 297 298 301 296 290 293 294 293 297 290 290 296 298 300 301 301 301 299 298 297 295 294 294 294 295 295 300 301 302 303 303 304 304 303 303 303 304 306
298 295 289 292 294 297 298 296 298 295 296 294 292 292 294 294 292 297 299 300 300 299 299 298 296 296 295 294 294 294 294 295 296 301 303 303 303 304 304 304 304 305 306 307
298 296 292 294 290 293 295 296 296 294 290 293 290 296 297 300 300 301 303 301 301 299 298 297 296 295 295 294 294 294 294 294 294 300 303 304 304 305 306 306 306 306 308 309
298 295 293 299 288 288 299 294 296 295 295 295 296 298 298 297 300 302 303 303 303 303 301 298 297 296 295 294 295 295 294 294 295 301 302 304 304 305 305 306 306 306 307 308
297 295 293 297 296 306 306 293 295 295 294 296 297 297 297 299 300 300 300 301 301 303 303 301 298 296 295 295 295 295 295 295 300 302 303 304 303 303 304 305 305 306 307 307
296 295 290 298 293 303 302 295 295 296 300 295 298 297 297 298 299 301 304 304 303 303 302 303 299 297 295 294 295 295 295 299 300 302 300 299 298 298 302 305 305 304 305 306
294 294 296 289 299 306 306 298 297 296 301 297 296 296 295 298 299 298 303 303 301 301 302 302 300 298 296 295 294 295 294 296 303 302 301 298 296 294 295 299 302 303 303 303
294 292 294 289 294 299 299 298 297 303 307 298 298 298 297 297 302 304 304 304 303 301 300 301 300 299 296 295 295 295 295 294 294 298 299 297 294 294 294 294 299 301 300 302
298 296 291 289 293 304 297 297 299 302 301 302 301 301 301 304 304 304 305 305 304 304 302 300 299 299 298 296 295 295 295 295 294 294 294 294 293 293 293 293 293 294 296 296
301 299 297 297 300 300 299 301 303 302 304 304 303 304 303 303 304 304 303 303 304 304 304 303 301 299 298 297 296 295 294 295 295 293 293 293 293 293 293 292 292 292 293 293
292 296 295 297 301 298 300 302 303 303 304 304 304 303 303 303 303 303 303 303 302 302 302 303 303 303 301 299 298 296 295 294 294 295 294 293 293 293 293 293 292 292 292 293
297 295 294 295 299 300 301 302 305 304 303 303 303 303 303 303 304 304 304 304 303 302 302 302 302 302 302 302 301 298 296 296 295 294 294 295 294 293 293 293 293 293 292 292
295 295 300 303 305 307 310 312 311 306 305 304 304 303 303 303 304 306 307 307 305 303 302 301 301 301 301 301 302 302 299 297 296 295 295 295 294 294 294 294 293 293 293 293
Wind_Speed
9 8 4 4 6 4 5 3 3 5 3 6 4 5 7 4 5 7 9 11 11 13 15 16 17 18 19 17 15 11 9 8 5 4 9 10 11 12 14 28 29 30 28 27
6 4 2 1 4 5 4 3 3 7 5 3 5 10 7 5 5 6 7 11 11 12 14 16 17 18 19 21 20 15 11 8 7 6 3 5 9 9 13 11 21 24 34 29
5 0 3 3 4 2 3 4 3 4 7 3 7 6 4 3 6 8 9 10 11 12 13 15 17 18 19 21 20 19 14 11 8 7 7 6 6 6 11 12 6 17 34 30
4 4 2 2 2 3 3 3 3 4 6 3 5 4 5 4 7 7 13 12 12 11 11 13 16 17 19 20 18 18 17 14 9 9 8 9 11 8 6 12 6 8 22 31
1 5 4 2 3 4 3 1 2 2 3 3 2 3 6 4 5 5 9 12 10 10 11 13 15 16 17 19 18 16 17 17 11 8 9 11 13 12 11 10 11 9 4 19
2 1 1 2 2 4 3 3 4 3 2 3 3 3 5 3 4 5 5 7 8 8 9 13 14 15 16 16 15 14 14 15 12 9 9 9 11 15 14 13 10 11 7 8
5 2 3 2 2 3 3 4 4 6 4 4 2 2 8 5 5 5 7 8 7 8 9 12 15 15 15 17 16 14 14 14 12 11 10 9 10 12 16 16 14 16 14 10
4 6 3 4 2 2 4 4 5 4 3 5 2 4 4 4 8 8 10 10 9 9 10 12 14 15 17 18 16 12 12 11 10 9 8 9 10 11 13 16 17 17 16 18
4 4 3 2 2 3 3 5 3 6 2 2 4 7 7 4 8 11 12 10 11 10 11 12 13 14 15 16 14 11 12 11 10 9 9 9 10 10 10 15 16 17 18 16
4 3 1 3 3 4 1 6 4 3 3 5 5 6 5 4 7 6 9 10 11 12 12 12 13 12 12 13 12 11 11 11 10 9 9 9 8 9 9 11 14 17 17 18
4 3 4 1 1 3 1 2 5 4 3 4 2 6 6 5 5 7 12 12 12 12 13 13 14 13 12 12 11 11 11 9 9 9 9 8 7 7 8 9 12 14 15 17
3 4 3 5 2 1 1 3 3 4 4 2 3 7 2 6 10 13 16 17 17 15 14 14 13 14 13 12 12 12 10 10 9 9 10 10 9 8 7 7 8 8 10 13
6 1 3 5 4 4 3 3 2 5 3 5 6 6 3 9 12 15 17 20 20 19 14 12 12 12 12 12 11 10 10 9 11 7 10 9 9 8 7 6 3 1 1 6
7 2 6 5 5 4 2 3 6 5 3 5 6 7 13 7 7 24 26 14 15 14 10 8 8 8 9 10 11 10 9 10 11 6 8 9 9 8 8 6 4 5 5 5
3 3 2 3 3 1 4 5 8 9 5 6 4 8 9 9 8 27 20 11 12 12 10 7 6 5 6 7 9 9 8 8 8 7 7 8 9 9 8 8 7 8 8 7
3 2 2 4 1 1 5 9 10 6 3 9 1 14 11 20 12 13 13 13 12 10 11 9 7 5 4 4 6 7 6 6 6 5 5 7 8 10 8 8 7 8 9 9
6 5 2 5 2 3 7 8 14 6 6 8 7 13 5 2 6 11 11 14 17 12 9 10 8 6 5 3 4 4 5 5 5 4 4 5 7 8 7 8 6 7 7 8
6 5 2 3 3 2 5 4 7 7 5 18 10 7 10 8 8 17 21 23 25 20 12 11 8 7 6 3 2 4 5 6 6 4 5 4 4 3 3 5 6 6 5 6
1 4 2 2 2 7 2 5 8 8 8 20 22 12 11 10 14 22 2 4 8 15 14 11 9 6 5 5 2 2 5 7 5 5 4 4 3 3 2 4 3 3 5 4
3 4 3 3 3 6 4 3 9 4 5 10 26 13 11 9 1 4 2 1 2 4 8 10 9 7 6 4 3 1 2 5 5 3 2 3 4 3 3 3 4 4 7 6
3 1 6 2 3 9 7 9 11 5 6 9 23 15 19 7 12 5 4 3 2 3 5 9 10 9 6 6 5 4 4 4 4 4 1 0 1 0 1 3 5 6 8 8
8 9 4 3 2 9 17 8 8 4 4 10 16 17 20 15 9 9 8 6 6 5 6 8 11 11 10 9 8 7 6 6 5 5 4 2 2 2 3 4 5 6 7 7
5 8 7 11 8 2 35 8 24 4 7 11 15 15 13 13 14 10 9 10 10 10 9 10 13 14 14 12 11 10 8 7 8 7 6 6 5 5 5 6 7 8 8 7
5 8 3 3 7 18 19 34 16 20 13 12 13 13 12 12 9 10 10 11 11 11 11 11 15 17 19 16 14 11 13 13 13 11 9 8 7 7 7 7 7 7 7 8
7 15 7 5 13 14 20 31 30 30 21 19 16 15 11 13 13 15 16 16 14 14 15 14 16 19 20 20 19 17 17 19 17 16 15 14 12 11 10 9 10 10 10 10
13 8 7 7 23 14 21 26 28 34 34 32 27 24 21 23 19 17 19 16 14 14 14 17 18 20 23 23 23 22 22 23 22 22 21 19 18 16 15 14 13 13 13 14
Wind_Direction
27 60 51 308 285 132 130 96 305 278 310 349 286 289 279 249 269 294 312 326 342 346 348 348 355 358 357 359 354 348 330 307 298 299 209 186 208 214 233 219 220 216 214 214
27 68 336 276 321 98 71 63 315 283 277 308 321 293 274 224 244 261 288 309 327 334 339 342 349 356 358 356 354 355 344 321 300 282 249 223 200 193 205 216 230 224 214 210
105 328 9 134 333 122 66 77 311 256 320 251 330 310 310 280 250 254 260 286 306 319 330 338 343 352 358 357 355 352 351 335 318 279 262 257 238 203 194 209 180 206 209 210
70 347 22 75 306 288 109 141 274 305 16 310 33 286 295 298 282 255 262 265 288 307 317 329 335 344 352 355 354 350 347 343 326 295 277 246 253 236 222 205 192 145 184 196
283 8 1 32 288 304 193 80 91 350 350 11 352 61 272 341 310 303 297 261 278 300 308 324 331 334 344 346 348 346 353 346 331 312 282 255 246 252 242 225 210 213 189 180
92 23 346 299 310 277 304 118 64 57 15 19 329 93 285 270 244 293 307 292 284 295 302 318 326 331 337 340 341 346 354 355 344 330 311 274 256 248 248 247 225 218 251 189
353 308 312 27 299 292 43 51 357 358 10 222 2 10 251 277 263 247 284 303 301 298 299 316 324 332 335 344 345 348 351 352 350 345 327 298 273 257 247 248 243 239 248 236
119 318 340 4 89 295 5 113 135 234 311 288 328 237 257 234 287 276 281 291 296 292 296 310 323 333 339 345 349 350 352 353 356 345 346 333 302 272 258 246 247 242 236 236
125 283 318 52 15 94 281 50 139 100 34 344 282 290 298 282 286 280 285 297 302 293 292 305 321 332 338 348 352 348 354 358 1 349 350 344 333 308 270 255 247 242 241 234
193 0 248 325 41 6 113 164 73 12 41 316 303 293 251 290 275 283 287 296 309 306 303 305 314 325 334 343 346 342 341 349 359 4 357 350 340 323 303 269 255 243 237 234
140 105 282 13 165 180 1 42 58 106 115 154 303 275 218 240 273 273 281 293 309 310 308 309 313 321 330 338 342 345 355 354 6 12 3 3 352 338 323 310 278 249 238 233
162 137 234 215 233 337 279 225 146 121 250 129 137 275 288 257 287 294 289 297 298 303 303 301 306 315 323 335 343 351 359 1 5 17 16 12 7 3 346 330 308 278 232 224
167 282 347 345 13 1 230 208 127 92 73 198 140 262 328 300 292 287 290 302 303 295 287 289 296 309 317 329 340 346 351 1 13 15 20 21 19 17 10 4 344 335 203 202
130 107 185 197 186 129 194 218 182 131 126 174 232 288 299 292 286 299 306 293 303 302 290 286 291 298 312 325 334 342 353 1 16 32 24 29 37 41 36 40 50 82 102 137
146 213 176 271 265 204 209 187 194 192 192 174 249 219 254 266 274 303 304 295 300 303 294 290 290 289 306 325 331 332 341 357 15 38 37 37 45 44 50 59 76 95 108 139
167 229 125 287 307 108 269 223 205 210 251 279 80 285 243 283 285 286 299 291 291 296 295 288 285 288 295 326 331 336 344 358 22 40 45 49 54 49 55 62 82 101 110 124
156 137 114 270 346 343 300 223 186 187 209 173 184 220 215 301 263 280 300 295 286 285 292 286 287 283 281 309 343 12 11 17 27 85 59 68 64 57 63 70 83 95 118 125
145 120 94 255 351 335 240 132 177 202 224 219 268 231 200 203 251 282 284 280 279 277 280 282 273 274 270 277 343 28 48 58 70 91 91 85 55 64 83 71 80 90 121 135
341 135 90 151 219 296 213 188 163 178 273 205 222 239 225 246 296 299 286 275 296 278 261 260 250 246 251 269 294 70 70 90 88 83 76 49 40 51 111 149 148 107 111 128
85 60 118 121 172 227 248 184 183 199 298 190 200 223 174 162 140 261 173 81 351 304 260 255 249 246 234 234 250 211 124 112 123 113 78 41 35 55 84 149 180 165 173 162
128 63 179 162 230 285 236 151 146 99 240 179 196 195 167 180 202 157 186 209 275 304 268 261 258 255 239 231 221 227 203 164 156 158 177 54 30 118 165 162 174 158 155 169
164 158 186 106 119 270 155 115 180 214 163 182 184 184 194 200 181 204 225 232 235 254 271 279 271 263 254 248 245 226 221 216 198 194 187 206 228 212 204 194 186 185 182 180
226 188 182 189 206 257 182 201 211 221 201 190 187 188 197 213 228 238 241 247 250 246 249 261 272 270 264 262 250 252 241 236 239 223 215 207 195 207 212 206 200 184 181 186
241 185 199 106 240 231 228 223 235 221 214 209 193 186 199 223 235 248 258 266 262 261 259 259 262 266 269 267 264 258 241 251 250 245 245 239 225 217 212 210 207 209 199 190
176 142 169 268 282 262 267 239 235 230 227 213 201 207 226 240 252 269 277 278 274 262 259 261 269 272 272 269 267 261 250 257 253 251 247 241 240 235 231 226 216 209 211 211
184 169 178 211 224 224 250 246 245 228 228 228 232 237 242 253 262 274 277 277 271 264 258 255 261 269 275 272 267 261 256 257 256 256 251 252 249 240 234 233 236 229 224 223